This is the latest recevied weather packets stored in our database for station/object DC1MBB-9. If no packets are shown the sender has not sent any weather packets the latest 1 day(s).
| Time | Temp. | Humidity | Pressure | Rain* | Wind** | Luminosity | Snow |
|---|---|---|---|---|---|---|---|
| 1777996486 | 21.11° C | 56% | 949 hPa | - | 0 m/s | - | - |
| 1777996125 | 21.11° C | 55% | 949 hPa | - | 0 m/s | - | - |
| 1777995765 | 21.11° C | 56% | 949 hPa | - | 0 m/s | - | - |
| 1777995404 | 21.67° C | 55% | 949 hPa | - | 0 m/s | - | - |
| 1777995043 | 21.67° C | 50% | 949 hPa | - | 0 m/s | - | - |
| 1777994682 | 22.22° C | 50% | 950 hPa | - | 0 m/s | - | - |
| 1777994322 | 22.22° C | 46% | 949 hPa | - | 0 m/s | - | - |
| 1777993961 | 22.22° C | 44% | 949 hPa | - | 0 m/s | - | - |
| 1777993600 | 22.22° C | 38% | 949 hPa | - | 0 m/s | - | - |
| 1777993239 | 22.22° C | 36% | 949 hPa | - | 0 m/s | - | - |
| 1777992878 | 22.22° C | 36% | 949 hPa | - | 0 m/s | - | - |
| 1777992518 | 22.22° C | 35% | 949 hPa | - | 0 m/s | - | - |
| 1777992157 | 23.33° C | 30% | 949 hPa | - | 0 m/s | - | - |
| 1777991796 | 23.33° C | 32% | 949 hPa | - | 0 m/s | - | - |
| 1777991435 | 23.89° C | 31% | 949 hPa | - | 0 m/s | - | - |
| 1777991075 | 24.44° C | 30% | 948 hPa | - | 0 m/s | - | - |
| 1777990714 | 25° C | 29% | 948 hPa | - | 0 m/s | - | - |
| 1777990353 | 25° C | 30% | 948 hPa | - | 0 m/s | - | - |
| 1777989992 | 25.56° C | 30% | 948 hPa | - | 0 m/s | - | - |
| 1777989631 | 25.56° C | 30% | 948 hPa | - | 0 m/s | - | - |
| 1777989271 | 25.56° C | 30% | 948 hPa | - | 0 m/s | - | - |
| 1777988910 | 25.56° C | 30% | 948 hPa | - | 0 m/s | - | - |
| 1777988549 | 25.56° C | 31% | 948 hPa | - | 0 m/s | - | - |
| 1777988188 | 26.11° C | 30% | 948 hPa | - | 0 m/s | - | - |
| 1777987832 | 26.11° C | 31% | 949 hPa | - | 0 m/s | - | - |
* Rain since midnight (hover to see other rain measurements)
** Current wind speed in m/s (hover to see current wind gust speed)